Vorticity
15 -23 -2 20 10 9 10 11 15 10 9 13 23 8 7 5 9 4 6 4 6 4 5 6 6 8 10 8 6 6 7 8 8 8 11 20 22 13 7 11 13 -2 -10 -2 7 13 30 10 39 15 24 17 11 16
21 -8 24 11 11 11 11 9 11 16 12 8 19 9 3 19 1 10 -5 6 8 4 8 7 7 7 6 8 7 8 6 8 8 10 11 27 13 -9 3 30 2 22 37 27 52 20 23 14 18 11 33 -1 1 29
18 2 7 12 11 11 10 4 18 11 -6 39 13 7 7 6 7 4 5 6 11 -2 8 5 8 7 7 8 8 7 8 8 10 9 13 31 10 12 -12 1 26 5 2 20 -6 -4 9 29 19 -4 14 20 -1 10
6 -11 8 15 12 11 10 12 9 13 24 15 4 2 8 8 6 9 -4 4 6 4 5 6 5 9 7 6 8 8 9 10 9 10 12 30 6 7 7 -4 10 10 13 7 8 10 13 6 14 30 24 6 6 5
3 2 11 15 12 11 13 10 9 18 16 3 1 5 -4 13 8 4 5 7 5 6 7 10 9 9 8 6 8 11 10 9 8 9 10 26 19 8 11 3 5 7 14 15 3 7 6 7 7 8 6 7 7 11
6 10 14 12 10 9 8 14 15 13 12 5 6 16 8 15 13 11 10 4 4 6 6 7 7 8 8 8 8 8 8 12 9 7 9 22 20 13 11 -2 14 11 5 9 13 11 11 1 3 12 14 10 7 2
13 13 10 8 8 9 10 9 9 9 13 8 11 24 12 12 15 6 4 5 6 7 9 8 8 8 7 6 8 11 13 9 5 10 16 11 23 14 9 4 2 1 7 4 1 21 6 5 2 0 3 7 5 6
16 9 6 7 7 8 8 8 9 10 9 15 10 -1 6 16 14 9 6 8 9 8 8 7 7 10 10 9 11 15 6 9 21 22 21 7 28 16 8 8 9 11 6 1 4 7 12 11 0 -3 1 13 12 7
16 9 8 6 7 8 8 8 8 10 11 16 11 2 5 6 7 9 9 9 8 8 9 7 7 10 11 12 10 20 19 22 29 30 22 8 31 11 12 13 10 11 10 14 5 6 4 0 4 6 7 1 5 7
8 7 5 8 8 8 9 8 8 10 10 14 11 9 9 9 9 9 8 9 9 7 8 8 11 11 15 18 29 30 32 36 22 32 33 34 14 10 9 2 2 14 4 18 37 7 2 4 5 8 11 8 13 10
8 7 3 7 6 8 9 9 9 10 10 11 11 10 9 8 8 7 8 7 7 8 8 10 12 8 24 34 2 -6 -4 22 28 24 29 30 11 10 4 -1 6 14 28 31 32 17 22 20 15 10 10 10 6 4
7 7 5 7 7 8 8 9 9 8 6 7 6 6 7 7 8 8 7 7 7 7 11 11 12 28 40 3 5 0 10 26 13 18 11 10 8 6 2 3 21 6 13 15 10 13 10 9 8 8 10 4 -0 2
9 9 10 7 8 9 8 9 10 9 9 8 8 8 7 8 8 8 9 9 10 10 6 14 33 28 11 7 7 11 -6 19 15 10 13 7 2 3 6 13 17 15 10 16 18 14 9 10 5 0 3 5 18 15
12 12 12 9 9 10 10 10 9 10 9 7 7 9 8 9 9 9 10 10 10 7 12 43 23 9 8 6 9 19 14 9 9 8 5 4 7 12 18 16 12 11 8 8 7 3 3 8 12 15 10 8 8 3
17 16 16 11 12 11 11 11 10 9 8 10 10 10 9 9 9 11 11 12 9 13 47 16 4 4 7 4 22 -4 5 15 -1 8 14 13 17 17 13 5 9 8 3 2 2 8 13 11 6 7 5 4 3 1
11 11 12 10 11 12 11 11 11 12 12 9 11 8 9 11 8 10 10 12 15 45 13 5 3 10 15 -0 10 13 8 21 25 16 17 15 5 6 6 10 7 4 5 8 12 9 9 6 4 4 2 1 3 7
11 12 13 10 9 9 10 10 11 12 11 9 9 8 12 10 10 11 6 17 41 10 6 7 3 14 7 8 8 1 8 5 10 9 11 14 10 2 4 5 7 12 14 10 9 7 4 3 1 2 4 9 12 10
11 13 12 10 11 11 11 11 11 10 10 11 9 10 13 11 10 13 8 30 11 8 8 -3 -0 2 10 8 8 7 3 6 12 12 11 10 11 11 13 15 12 11 9 6 4 4 3 5 7 11 12 9 9 8
15 15 11 8 10 10 11 10 10 12 11 12 13 14 15 12 7 7 26 17 11 10 4 1 2 8 4 3 1 5 10 13 12 14 13 13 12 13 9 12 10 6 4 3 4 5 6 9 9 10 6 4 2 0
11 9 10 12 12 12 11 13 14 18 13 13 11 12 14 12 10 9 32 14 9 8 6 8 4 2 6 4 0 8 16 11 14 15 13 10 9 11 11 7 4 3 3 3 5 11 6 7 4 -1 4 7 9 6
13 11 10 11 12 12 12 12 15 15 12 9 10 8 14 13 11 28 24 11 5 0 -10 6 7 5 5 12 18 16 12 10 14 16 7 8 10 10 7 4 3 4 3 4 11 7 5 2 1 2 2 1 5 7
12 11 13 12 10 13 12 13 9 10 8 5 -1 1 12 20 21 23 20 10 2 3 11 5 3 15 10 9 11 13 13 14 19 8 7 10 8 6 5 3 5 4 4 10 8 6 4 2 3 7 8 5 3 11
13 12 11 12 14 14 11 14 12 6 3 -0 2 9 17 23 22 20 14 7 6 13 6 2 9 3 2 5 9 15 18 19 10 5 8 8 5 5 5 6 6 6 8 7 7 5 3 2 2 5 5 5 6 11
11 14 13 14 14 18 12 6 8 3 1 2 4 14 21 22 23 18 13 3 10 7 2 3 3 2 2 3 8 19 20 12 4 8 8 6 7 6 6 7 8 5 7 6 4 2 4 6 5 3 5 4 11 6
11 11 12 15 17 5 -1 6 7 7 5 2 7 15 21 21 19 15 11 11 12 6 4 4 8 3 4 6 17 20 15 5 6 8 7 7 7 7 7 7 5 4 4 3 2 2 2 5 6 4 3 11 9 8
12 10 15 18 9 2 -1 0 4 14 10 5 15 17 19 21 18 14 11 11 5 5 5 5 3 7 6 14 18 17 11 5 7 8 7 7 7 6 5 7 7 3 2 2 2 5 2 5 5 2 9 11 8 10
14 10 2 6 8 4 3 0 6 11 8 17 16 11 15 17 18 16 11 6 4 8 5 1 6 4 11 12 22 17 7 6 8 8 7 7 8 8 9 7 8 5 4 3 1 3 4 4 4 8 13 8 10 9
19 8 6 2 1 1 2 0 12 20 19 15 5 10 12 17 17 13 12 10 8 4 5 6 4 9 10 18 16 8 6 7 9 8 7 8 10 11 9 6 7 6 5 2 1 3 3 3 6 14 7 10 9 6
7 6 5 4 4 4 2 9 19 16 15 6 -0 9 13 11 11 12 14 10 9 9 7 5 6 7 12 16 11 7 8 10 9 7 7 12 12 9 9 8 6 5 5 4 2 4 3 6 14 9 9 10 5 10
7 6 7 2 0 7 13 16 19 17 9 6 7 8 8 10 10 9 10 10 10 8 7 6 5 5 11 13 9 6 8 8 7 6 11 12 10 8 7 7 6 5 6 3 5 2 5 13 9 9 10 6 9 9
8 9 13 13 14 19 16 12 16 15 6 5 10 10 8 8 9 8 8 10 10 11 10 8 5 6 9 12 10 6 6 6 8 11 13 10 8 8 8 7 6 7 5 6 2 6 12 10 10 10 6 9 9 23
4 5 5 9 13 12 10 17 18 13 8 8 12 9 10 9 8 5 6 9 11 12 10 8 8 5 5 10 11 8 6 5 7 7 7 8 9 9 10 7 9 5 6 2 7 13 11 10 10 6 8 9 22 32
4 2 6 10 7 5 7 6 8 14 11 11 9 8 11 13 10 6 6 8 11 13 11 10 9 5 3 7 15 11 6 6 5 7 5 4 5 9 9 11 7 6 2 8 13 10 10 9 6 8 9 20 31 28
Height
5371 5378 5384 5391 5398 5405 5412 5417 5422 5428 5434 5439 5446 5451 5457 5462 5467 5473 5479 5484 5488 5492 5496 5500 5502 5505 5506 5507 5508 5510 5511 5511 5510 5510 5509 5508 5507 5507 5507 5507 5507 5505 5505 5504 5504 5503 5503 5501 5502 5504 5505 5508 5511 5516
5369 5374 5380 5388 5395 5402 5409 5415 5419 5425 5431 5439 5444 5450 5456 5462 5467 5473 5478 5482 5487 5492 5496 5497 5499 5500 5503 5504 5505 5506 5507 5506 5507 5506 5504 5503 5505 5506 5507 5506 5506 5506 5504 5503 5504 5503 5502 5503 5501 5503 5506 5508 5513 5516
5362 5370 5378 5386 5393 5400 5407 5413 5418 5424 5431 5438 5443 5449 5456 5461 5466 5472 5476 5482 5486 5489 5492 5495 5496 5498 5500 5501 5502 5503 5502 5503 5502 5501 5500 5500 5502 5504 5506 5507 5505 5507 5505 5505 5505 5505 5504 5503 5503 5505 5507 5508 5513 5514
5360 5369 5377 5385 5391 5398 5405 5411 5416 5422 5429 5436 5441 5449 5455 5460 5465 5470 5475 5480 5484 5487 5490 5492 5493 5495 5497 5497 5498 5498 5498 5498 5498 5497 5497 5497 5500 5502 5505 5507 5506 5507 5507 5507 5506 5505 5505 5505 5506 5506 5508 5510 5512 5516
5360 5368 5376 5384 5391 5397 5403 5409 5415 5422 5428 5435 5441 5448 5454 5458 5463 5469 5474 5478 5482 5486 5488 5489 5491 5492 5492 5493 5493 5494 5493 5493 5493 5493 5493 5493 5496 5499 5502 5505 5506 5505 5506 5506 5506 5506 5505 5506 5507 5508 5511 5513 5515 5517
5360 5368 5376 5383 5390 5396 5402 5408 5414 5421 5427 5434 5440 5446 5452 5457 5463 5467 5472 5476 5479 5482 5485 5486 5487 5487 5488 5489 5489 5489 5488 5488 5489 5489 5488 5489 5491 5495 5498 5502 5504 5505 5505 5505 5505 5506 5507 5508 5509 5511 5511 5512 5514 5516
5359 5367 5376 5383 5390 5396 5402 5408 5414 5420 5426 5432 5439 5444 5450 5456 5461 5465 5470 5473 5476 5479 5481 5482 5482 5483 5483 5484 5483 5483 5482 5482 5482 5482 5483 5484 5487 5490 5494 5498 5501 5502 5503 5505 5505 5506 5507 5508 5510 5511 5512 5513 5514 5516
5358 5366 5375 5383 5390 5396 5402 5408 5414 5420 5425 5431 5438 5444 5449 5454 5459 5463 5467 5470 5473 5475 5477 5478 5478 5479 5479 5478 5478 5476 5475 5474 5473 5474 5476 5479 5483 5487 5490 5493 5497 5499 5501 5502 5504 5505 5507 5508 5510 5510 5511 5513 5515 5515
5357 5366 5374 5383 5389 5396 5403 5408 5414 5420 5426 5432 5437 5443 5448 5453 5457 5461 5464 5467 5470 5473 5472 5473 5475 5475 5474 5473 5472 5469 5467 5465 5465 5466 5469 5474 5479 5484 5487 5490 5493 5496 5498 5499 5500 5502 5505 5507 5509 5510 5511 5512 5513 5514
5357 5365 5374 5382 5389 5396 5402 5408 5414 5420 5425 5431 5437 5441 5446 5451 5455 5459 5462 5464 5466 5467 5469 5470 5471 5470 5470 5468 5467 5466 5462 5459 5459 5462 5464 5469 5475 5481 5486 5488 5491 5492 5493 5495 5496 5498 5501 5504 5505 5507 5508 5509 5510 5510
5357 5365 5374 5382 5388 5395 5402 5408 5414 5420 5424 5430 5435 5440 5445 5449 5453 5456 5459 5462 5463 5465 5466 5467 5466 5466 5466 5466 5466 5466 5464 5462 5461 5463 5465 5469 5476 5481 5484 5487 5488 5489 5491 5490 5490 5493 5497 5500 5502 5504 5506 5507 5507 5507
5357 5366 5374 5381 5388 5394 5401 5407 5413 5418 5423 5429 5434 5438 5443 5447 5451 5455 5456 5459 5460 5462 5462 5462 5462 5462 5463 5465 5466 5466 5465 5465 5466 5468 5469 5473 5477 5481 5482 5484 5487 5489 5490 5491 5492 5494 5497 5499 5502 5503 5504 5504 5504 5503
5357 5366 5374 5380 5387 5394 5400 5406 5412 5417 5423 5428 5433 5437 5442 5446 5449 5452 5454 5456 5457 5458 5459 5459 5459 5460 5463 5465 5467 5467 5466 5467 5468 5471 5473 5476 5478 5480 5482 5484 5486 5488 5490 5491 5493 5495 5497 5499 5500 5500 5500 5500 5499 5498
5357 5365 5372 5380 5386 5393 5399 5405 5411 5417 5423 5427 5432 5436 5440 5444 5447 5449 5451 5453 5454 5455 5455 5456 5459 5462 5464 5466 5467 5468 5470 5470 5471 5473 5475 5477 5479 5481 5482 5484 5487 5488 5490 5492 5493 5494 5495 5496 5497 5496 5496 5495 5494 5493
5357 5364 5372 5379 5386 5392 5399 5405 5410 5415 5420 5426 5430 5434 5439 5442 5444 5447 5449 5450 5452 5452 5454 5457 5460 5463 5465 5467 5469 5471 5472 5472 5474 5474 5476 5477 5479 5481 5483 5485 5487 5489 5490 5491 5492 5492 5493 5493 5493 5493 5493 5492 5490 5488
5357 5364 5372 5379 5386 5392 5398 5404 5409 5415 5419 5424 5429 5433 5437 5440 5442 5445 5447 5449 5450 5451 5455 5458 5462 5464 5466 5468 5470 5471 5472 5472 5474 5474 5476 5478 5480 5482 5484 5485 5487 5488 5489 5489 5489 5490 5491 5491 5491 5490 5489 5487 5484 5481
5359 5367 5373 5380 5386 5393 5398 5404 5409 5414 5419 5423 5427 5431 5434 5438 5441 5443 5446 5448 5450 5453 5457 5460 5463 5466 5468 5469 5471 5472 5473 5474 5475 5476 5477 5478 5480 5482 5483 5484 5485 5486 5487 5487 5488 5488 5488 5488 5487 5485 5483 5480 5476 5472
5362 5369 5376 5382 5388 5394 5399 5403 5408 5413 5417 5422 5426 5429 5433 5436 5439 5442 5444 5447 5450 5454 5458 5461 5464 5466 5468 5470 5472 5473 5474 5475 5475 5476 5477 5478 5479 5481 5482 5483 5484 5485 5485 5485 5486 5486 5485 5483 5482 5479 5476 5472 5468 5463
5365 5372 5377 5382 5388 5393 5399 5404 5408 5412 5416 5420 5424 5428 5431 5434 5437 5441 5443 5446 5450 5455 5459 5462 5465 5466 5468 5470 5471 5472 5473 5474 5474 5475 5476 5477 5479 5480 5481 5482 5482 5483 5483 5483 5483 5482 5480 5478 5476 5473 5469 5464 5459 5453
5366 5372 5378 5383 5389 5394 5398 5403 5408 5412 5416 5420 5424 5427 5430 5433 5436 5438 5441 5446 5450 5455 5459 5462 5464 5466 5467 5468 5470 5471 5471 5472 5473 5474 5475 5476 5477 5478 5479 5480 5481 5481 5481 5480 5479 5477 5475 5472 5469 5465 5460 5455 5449 5442
5369 5374 5380 5384 5389 5394 5399 5404 5408 5413 5416 5420 5424 5427 5430 5432 5434 5436 5440 5445 5450 5455 5458 5460 5462 5464 5466 5466 5467 5468 5468 5469 5470 5471 5473 5474 5475 5476 5477 5478 5478 5478 5478 5476 5475 5472 5469 5466 5461 5456 5450 5444 5437 5430
5372 5377 5382 5386 5391 5396 5400 5404 5409 5413 5418 5421 5425 5427 5428 5430 5432 5435 5440 5445 5449 5453 5456 5458 5461 5462 5463 5465 5465 5465 5466 5467 5468 5470 5471 5473 5474 5474 5475 5475 5475 5474 5473 5471 5468 5465 5462 5458 5453 5447 5440 5432 5425 5416
5376 5380 5384 5389 5394 5398 5403 5406 5410 5414 5419 5422 5424 5426 5427 5428 5431 5434 5439 5444 5448 5450 5453 5456 5458 5460 5462 5462 5462 5463 5463 5465 5466 5468 5469 5470 5470 5471 5471 5471 5470 5469 5467 5464 5461 5458 5453 5448 5442 5435 5428 5420 5412 5403
5379 5383 5387 5391 5396 5400 5405 5409 5412 5416 5419 5421 5423 5424 5425 5427 5430 5434 5438 5442 5445 5449 5451 5454 5456 5458 5459 5460 5460 5460 5461 5463 5464 5465 5466 5466 5466 5466 5466 5466 5464 5462 5460 5457 5453 5449 5444 5438 5431 5424 5417 5408 5399 5390
5382 5386 5389 5393 5397 5402 5406 5410 5413 5416 5418 5420 5421 5422 5423 5425 5429 5433 5436 5440 5443 5446 5449 5451 5453 5455 5456 5456 5456 5457 5458 5459 5460 5461 5462 5462 5462 5461 5460 5459 5457 5455 5452 5449 5445 5440 5434 5428 5421 5414 5405 5396 5386 5377
5384 5388 5393 5396 5400 5404 5408 5410 5412 5414 5416 5417 5419 5420 5421 5424 5427 5432 5434 5437 5440 5443 5446 5448 5450 5451 5452 5452 5452 5453 5454 5456 5456 5457 5456 5456 5456 5455 5454 5453 5451 5448 5444 5441 5436 5431 5425 5418 5410 5402 5393 5384 5374 5364
5387 5391 5395 5398 5402 5404 5407 5409 5410 5412 5413 5415 5416 5418 5420 5423 5426 5429 5431 5434 5437 5440 5442 5444 5445 5446 5447 5447 5447 5449 5450 5451 5451 5451 5451 5450 5449 5449 5448 5446 5443 5440 5436 5432 5427 5421 5415 5408 5400 5391 5382 5372 5362 5351
5391 5394 5396 5399 5401 5403 5405 5407 5408 5409 5411 5413 5415 5416 5419 5421 5423 5426 5429 5431 5433 5436 5437 5439 5440 5441 5442 5443 5443 5444 5444 5445 5445 5445 5445 5444 5443 5441 5440 5437 5435 5432 5428 5423 5417 5411 5404 5397 5389 5380 5371 5361 5351 5339
5391 5393 5395 5397 5398 5400 5402 5404 5405 5407 5409 5410 5412 5414 5416 5418 5420 5422 5425 5427 5429 5431 5433 5434 5435 5436 5437 5438 5438 5438 5439 5439 5440 5439 5439 5437 5436 5434 5431 5429 5426 5422 5418 5413 5407 5401 5394 5386 5377 5368 5359 5349 5338 5327
5388 5389 5392 5393 5395 5396 5398 5399 5400 5402 5404 5406 5408 5410 5412 5414 5416 5418 5420 5422 5424 5425 5427 5428 5429 5430 5431 5432 5432 5433 5433 5433 5433 5433 5431 5430 5428 5426 5423 5420 5417 5413 5408 5403 5397 5391 5383 5375 5366 5357 5347 5337 5326 5315
5383 5385 5386 5387 5389 5391 5392 5393 5394 5396 5398 5401 5403 5405 5407 5409 5411 5413 5415 5417 5418 5419 5420 5422 5423 5423 5424 5425 5426 5426 5426 5426 5426 5425 5423 5422 5419 5417 5414 5411 5407 5403 5399 5393 5387 5380 5372 5364 5355 5346 5336 5326 5315 5303
5376 5378 5380 5381 5383 5385 5386 5387 5388 5390 5393 5395 5398 5400 5402 5403 5405 5408 5410 5410 5411 5412 5413 5414 5415 5416 5417 5418 5418 5419 5419 5419 5418 5417 5415 5413 5411 5408 5405 5402 5398 5394 5389 5383 5377 5369 5362 5354 5345 5336 5326 5315 5304 5293
5366 5368 5370 5372 5375 5377 5379 5380 5381 5383 5385 5388 5390 5392 5394 5396 5399 5402 5403 5402 5403 5403 5405 5406 5407 5409 5410 5410 5410 5410 5410 5410 5410 5409 5407 5405 5402 5399 5396 5392 5389 5384 5379 5373 5366 5359 5352 5344 5335 5326 5316 5305 5295 5286